Flag for Saint Lucia Weather past 2 weeks in Vieux Fort, Saint Lucia

Now
82 °F

Passing clouds.


Feels Like: 89 °F
Forecast: 81 / 87 °F
Wind: 14 mph from East

Location: Hewanorra International Airport

Current Time: Sep 1, 2014 at 4:39:38 AM

Latest Report: Sep 1, 2014 at 4:00 AM


Visibility: N/A

Pressure: 29.95 "Hg

Humidity: 79%

Dew point: 75 °F

Location of Vieux FortLocation

Historic Weather in Vieux Fort — Graph

°F

Vieux Fort temperature yesterday

Maximum temperature yesterday: 88 °F (at 12:00 PM)
Minimum temperature yesterday: 82 °F (at 12:00 AM)
Average temperature yesterday: 84 °F

Past Weeks' High & Low Weather Summary

 TemperatureHumidityPressure
High88 °F (Aug 18, 12:00 PM)100% (Aug 21, 12:00 AM)30.04 "Hg (Aug 21, 12:00 AM)
Low73 °F (Aug 27, 10:00 PM)62% (Aug 22, 12:00 PM)29.83 "Hg (Aug 21, 4:00 PM)
Average83 °F79%29.94 "Hg
* Reported Aug 17 2:00 AM — Sep 1 2:00 AM, Vieux Fort, Weather by CustomWeather, © 2014

Note: Actual official high and low records may vary slightly from our data, if they occured in-between our weather recording intervals... More about our weather records

Advertising

Vieux Fort weather history for previous 24 hours

 ConditionsComfort  
Time TempWeatherWind HumidityBarometerVisibility
2:00 AM
Sep 1
82 °FPassing clouds.13 mph79%29.95 "HgN/A
1:00 AM82 °FPassing clouds.15 mph79%29.98 "HgN/A
12:00 AM82 °FPassing clouds.18 mph79%30.01 "HgN/A
11:00 PM
Aug 31
82 °FPassing clouds.18 mph79%30.01 "HgN/A
10:00 PM82 °FPassing clouds.16 mph74%30.01 "HgN/A
9:00 PM82 °FPassing clouds.17 mph79%30.01 "HgN/A
8:00 PM82 °FPassing clouds.17 mph79%29.98 "HgN/A
7:00 PM82 °FPassing clouds.14 mph79%29.98 "HgN/A
6:00 PM84 °FPassing clouds.15 mph74%29.95 "HgN/A
5:00 PM86 °FPassing clouds.16 mph70%29.95 "HgN/A
4:00 PM86 °FPassing clouds.17 mph70%29.95 "HgN/A
3:00 PM86 °FPassing clouds.18 mph75%29.95 "HgN/A
2:00 PM88 °FPassing clouds.18 mph70%29.98 "HgN/A
1:00 PM88 °FScattered clouds.20 mph66%29.98 "HgN/A
12:00 PM88 °FScattered clouds.18 mph66%30.01 "HgN/A
11:00 AM86 °FScattered clouds.18 mph70%30.01 "HgN/A
10:00 AM86 °FScattered clouds.18 mph70%30.01 "HgN/A
9:00 AM86 °FPassing clouds.17 mph75%30.01 "HgN/A
8:00 AM84 °FPassing clouds.18 mph74%30.01 "HgN/A
7:00 AM82 °FScattered clouds.17 mph79%29.98 "HgN/A
6:00 AM82 °FScattered clouds.18 mph79%29.98 "HgN/A
5:00 AM82 °FPartly cloudy.16 mph79%29.95 "HgN/A
4:00 AM82 °FPassing clouds.18 mph79%29.95 "HgN/A
Weather by CustomWeather, © 2014

See weather overviewHow to use our weather pages